Regional Weather Roundup
Issued by NWS Sterling, VA

Home | Current Version | Previous Version | Graphics & Text | Print | Product List | Glossary On
Versions: 1 2 3 4 5 6 7 8 9 10 11 12 13 14 15 16 17 18 19 20 21 22 23 24 25 26 27 28 29 30 31 32 33 34 35 36 37 38 39 40 41 42 43 44 45 46 47 48 49 50
000
ASUS41 KLWX 310110
RWRLWX

REGIONAL WEATHER ROUNDUP
NATIONAL WEATHER SERVICE BALTIMORE MD/WASHINGTON DC
900 PM EDT MON MAY 30 2016

Note: "FAIR" indicates few or no clouds below 12,000 feet
with no significant weather and/or obstructions to visibility.
 TC=TEMPERATURE CELSIUS

 * =Non NWS site. Station does not report precipitation (e.g. rain,
    snow, etc.), thunder, or fog.

DCZ001-MDZ009-015-VAZ040>042-051-053>054-310200-
WASHINGTON METRO

CITY           SKY/WX    TMP DP  RH WIND       PRES   REMARKS
WASHINGTON NAT MOCLDY    74  70  87 S12       29.97R
DULLES         MOCLDY    74  68  81 S6        29.97R
ANDREWS AFB    CLOUDY    71  69  94 S7        29.97R
FT BELVOIR     MOCLDY    73  69  89 SE5       29.97R
QUANTICO       FAIR      73  68  84 S16       29.98R
COLLEGE PARK*  MOCLDY    72  68  88 S3        29.96S
LEESBURG*      FAIR      77  72  83 S10       29.97S
MANASSAS*      CLEAR     73  72  94 SE7       29.96S

$$

MDZ006>007-011-014-310200-
BALTIMORE METRO

CITY           SKY/WX    TMP DP  RH WIND       PRES   REMARKS
BWI AIRPORT    CLOUDY    72  69  90 CALM      29.96S
MD SCIENCE CTR   N/A     74  68  81 MISG      29.96S
MARTIN STATE   MOCLDY    73  72  94 SE7       29.98S
ANNAPOLIS      CLOUDY    70  69  97 S7        29.97S
FORT MEADE*    CLOUDY    70  68  94 CALM      29.99S

$$

MDZ012-015-019>023-310200-
MARYLAND EASTERN SHORE

CITY           SKY/WX    TMP DP  RH WIND       PRES   REMARKS
OCEAN CITY     LGT RAIN  68  66  93 CALM      29.98S
SALISBURY      LGT RAIN  68  67  96 CALM      29.99R
BAY BRIDGE AP* CLOUDY    72  68  88 S7        29.98R
CAMBRIDGE*       N/A     68  66  94 SE6       29.97S
EASTON*        MOCLDY    70  70 100 S5        30.01R

$$

MDZ017>025-310200-
SOUTHERN MARYLAND

CITY           SKY/WX    TMP DP  RH WIND       PRES   REMARKS
PATUXENT RIVER CLOUDY    68  66  93 S5        29.98R
ST INIGOES     CLOUDY    69  68  96 SE5       29.98R
LEONARDTOWN*   CLOUDY    68  64  88 CALM      30.00R

$$

MDZ003>005-310200-
NORTH CENTRAL MARYLAND

CITY           SKY/WX    TMP DP  RH WIND       PRES   REMARKS
FREDERICK*     MOCLDY    75  70  83 CALM      29.99R
HAGERSTOWN APT CLOUDY    76  63  64 S3        29.96R
WESTMINSTER*   MOCLDY    75  72  88 S6        29.98R

$$

MDZ501>502-310200-
WESTERN MARYLAND

CITY           SKY/WX    TMP DP  RH WIND       PRES   REMARKS
OAKLAND*       PTCLDY    64  57  77 CALM      30.08S
CUMBERLAND*    PTCLDY    70  70 100 SE3       30.03R

$$

VAZ025>031-310200-
SHENANDOAH VALLEY

CITY           SKY/WX    TMP DP  RH WIND       PRES   REMARKS
WINCHESTER*    MOCLDY    70  63  78 CALM      29.97S
FRONT ROYAL*   CLOUDY    68  66  94 CALM      29.96S
LURAY*         MOCLDY    73  68  83 N7        29.98R
NEW MARKET*    CLOUDY    74  65  73 N10G18    29.98R
STAUNTON*      MOCLDY    71  65  80 CALM      30.00R
WAYNESBORO*    FAIR      73  65  75 S3        30.00S

$$

WVZ021-048>050-054>055-310200-
EASTERN WEST VIRGINIA PANHANDLE

CITY           SKY/WX    TMP DP  RH WIND       PRES   REMARKS
MARTINSBURG    FAIR      71  63  75 S6        29.94F
PETERSBURG*    LGT RAIN  72  65  79 CALM      30.02R

$$

VAZ036>039-050-310200-
CENTRAL FOOTHILLS

CITY           SKY/WX    TMP DP  RH WIND       PRES   REMARKS
CHARLOTTESVILL FAIR      75  68  78 S6        29.96S
CULPEPER*      FAIR      74  70  87 CALM      29.98R
ORANGE*        FAIR      73  73 100 NE3       29.99R
GORDONSVILLE*  FAIR      73  71  93 SE5       29.97S
WARRENTON*     FAIR      74  66  75 SE3       29.97R

$$

VAZ055>057-310200-
NORTH AND CENTRAL PIEDMONT

CITY           SKY/WX    TMP DP  RH WIND       PRES   REMARKS
FREDERICKSBRG* FAIR      71  67  86 S9        29.97S
STAFFORD*      FAIR      71  65  81 S7        30.02R

$$

NCZ024-NYZ072-PAZ021-071-VAZ022-071-310200-
OTHER REGIONAL OBSERVATIONS

CITY           SKY/WX    TMP DP  RH WIND       PRES   REMARKS
NEW YORK CITY  CLOUDY    75  68  78 VRB7      29.97S
PHILADELPHIA   CLOUDY    73  68  84 S8        29.98R
PITTSBURGH     PTCLDY    79  54  41 NE3       29.98R
ROANOKE        TSTM      74  63  68 N7        30.01R
RICHMOND       CLOUDY    69  68  96 E3        29.98R
RALEIGH        MOCLDY    74  71  91 E6        29.95R

$$

ANZ530>537-310200-
MARINE OBSERVATIONS

STATION/POSITION TIME  TEMP    WIND        PRES
                       AIR SEA DIR/SP/G
                 (UTC) (F)     (DEG/KT/KT) (MB)
THOMAS PT LIGHT  0100   69 69  180/ 15/ 17 1016.3R
BALT KEY BRIDGE  0000   72                   N/A
COVE POINT       0000   68                   N/A
LEWISETTA        0000   70 71                N/A
SOLOMONS ISLAND  0000   69 68                N/A

$$




USA.gov is the U.S. government's official web portal to all federal, state and local government web resources and services.